Regional Weather Roundup
Issued by NWS

Home | Current Version | Previous Version | Graphics & Text | Print | Product List | Glossary On
Versions: 1 2 3 4 5 6 7 8 9 10 11 12 13 14 15 16 17 18 19 20 21 22 23 24 25 26 27 28 29 30 31 32 33 34 35 36 37 38 39 40 41 42 43 44 45 46 47 48 49 50
000
ASUS45 KBOU 261407
RWRCO

WEATHER ROUNDUP FOR COLORADO
NATIONAL WEATHER SERVICE DENVER/BOULDER CO
700 AM MST MON JAN 26 2015

NOTE: "FAIR" INDICATES FEW OR NO CLOUDS BELOW 12000 FEET WITH NO
SIGNIFICANT WEATHER AND/OR OBSTRUCTIONS TO VISIBILITY.

COZ001>005-013-030-031-261500-
...NORTHWEST COLORADO...

CITY           SKY/WX    TMP DP  RH WIND       PRES   REMARKS
CRAIG          PTCLDY    12   8  84 SE3       30.49R
HAYDEN         CLEAR     21  18  86 E14       30.47R WCI   8
MEEKER         PTCLDY    13  10  88 CALM      30.46R
MOUNT WERNER   NOT AVBL
STEAMBOAT SPGS CLEAR     17  16  94 CALM      30.49R
WALDEN         CLEAR     14  12  92 E7        30.46S WCI   4
$$

COZ006>008-011-261500-
...WEST CENTRAL VALLEYS...

CITY           SKY/WX    TMP DP  RH WIND       PRES   REMARKS
GRAND JUNCTION CLEAR     28  23  81 SE10      30.42R WCI  19
MONTROSE       PTCLDY    22  18  85 S6        30.46R WCI  14
EAGLE          CLEAR     18  16  93 CALM      30.54R
RIFLE          PTCLDY    22  18  85 CALM      30.46R
DELTA          PTCLDY    24  20  87 CALM      30.46R
NUCLA          PTCLDY    30  23  74 SE5       30.44R WCI  25
$$

COZ017>023-064>068-261500-
...SOUTHWEST COLORADO...

CITY           SKY/WX    TMP DP  RH WIND       PRES   REMARKS
DURANGO        CLEAR     22  19  89 CALM      30.40R
CORTEZ         CLEAR     21  17  84 E5        30.40R WCI  15
PAGOSA SPRINGS CLEAR     19  13  79 CALM      30.43R
TELLURIDE      NOT AVBL
WOLF CREEK PAS NOT AVBL
$$

COZ009-010-012-014-032>034-037-058>063-261500-
...CENTRAL COLORADO...

CITY           SKY/WX    TMP DP  RH WIND       PRES   REMARKS
ASPEN          CLEAR     19  13  77 S6        30.46R WCI  11
BUENA VISTA    CLEAR     28  19  70 W3        30.43R
COPPER MTN     PTCLDY    34  10  37 NW5       30.56R WCI  30
BERTHOUD PASS  FAIR      23  18  80 NE6       30.57R WCI  16
COTTONWOOD PAS CLEAR     43   7  22 W6        30.47R
GUNNISON       PTCLDY    -2 -17  50 CALM      30.56R
KREMMLING      FOG      N/A N/A N/A CALM      30.56R VSB 1/4
LEADVILLE      PTCLDY    18  12  77 CALM      30.48R
MONARCH PASS   PTCLDY    32  10  40 SW6       30.65R WCI  26
SALIDA         CLEAR     27  20  73 CALM      30.50R
SUNLIGHT       PTCLDY    32  21  64 NE3         N/A
WILKERSON PASS PTCLDY    37   9  30 NE16G24   30.52R
$$

COZ069>075-261500-
...SAN LUIS VALLEY/SANGRE DE CRISTO MOUNTAINS...

CITY           SKY/WX    TMP DP  RH WIND       PRES   REMARKS
ALAMOSA        MOCLDY     6   1  80 CALM      30.44R
LA VETA PASS   NOT AVBL
SAGUACHE       PTCLDY    19  14  79 E3        30.45R
$$

COZ035-036-038>040-261500-
...NORTHERN COLORADO FRONT RANGE...

CITY           SKY/WX    TMP DP  RH WIND       PRES   REMARKS
DENVER INTL AP PTCLDY    37  25  61 S9        30.24R
DMNS CITY PARK   N/A     37  23  56 S2        30.26R
AURORA         PTCLDY    39  23  52 S10       30.26R
FRONT RANGE AP NOT AVBL
ERIE MUNI ARPT PTCLDY    28  24  86 S3        30.24R
BOULDER MUN AP PTCLDY    39  23  52 S3        30.24R
CENTENNIAL     PTCLDY    37  23  56 S9        30.26R
BROOMFIELD     PTCLDY    39  23  52 S3        30.25R
FORT COLLINS   PTCLDY    36  23  60 S8        30.23R
LONGMONT       PTCLDY    31  23  71 CALM      30.25R
$$

COZ041-046-047-076>085-087-088-261500-
...PIKES PEAK/PALMER DIVIDE AND SOUTHERN FOOTHILLS...

CITY           SKY/WX    TMP DP  RH WIND       PRES   REMARKS
COLO. SPRINGS  PTCLDY    33  23  66 N7        30.29R WCI  27
A. F. ACADEMY  PTCLDY    31  21  67 N7        30.30R WCI  24
ELLICOTT       PTCLDY   N/A N/A N/A NW8       30.28R
FALCON         PTCLDY    35  22  59 NW6       30.32R WCI  29
FORT CARSON    PTCLDY    35  23  61 NW13      30.26R WCI  27
LIMON          PTCLDY    35  25  66 NW13      30.24R WCI  26
MONUMENT HILL  PTCLDY    34  21  60 S7        30.31R WCI  28
TRINIDAD       PTCLDY    36  23  59 W17       30.29R
$$

COZ042>045-048>051-090-091-261500-
...NORTHEAST COLORADO...

CITY           SKY/WX    TMP DP  RH WIND       PRES   REMARKS
GREELEY ARPT   PTCLDY    27  18  69 CALM      30.21R
AKRON          PTCLDY    36  28  73 W15       30.19R
BURLINGTON     CLEAR     39  28  64 NW13      30.18R
WRAY           CLEAR     40  31  69 W12       30.15R
STERLING       PTCLDY    45  32  61 NW6       30.17R
HOLYOKE        CLEAR     43  30  61 W12       30.13R
FORT MORGAN    PTCLDY    33  27  77 W9        30.21R WCI  25
$$

COZ086-089-092>099-261500-
...SOUTHEAST COLORADO...

CITY           SKY/WX    TMP DP  RH WIND       PRES   REMARKS
PUEBLO         CLEAR     25  22  88 NW3       30.26R
LA JUNTA       PTCLDY    37  27  67 W17       30.23R
LAMAR          PTCLDY    33  29  85 W10       30.20R WCI  25
SPRINGFIELD      N/A     37  27  67 W13       30.21R
$$



USA.gov is the U.S. government's official web portal to all federal, state and local government web resources and services.